Location: Unspecified
(64.9000°N, 0.0000°E)
Time: 21:01:26
(UTC+00:00)

Vanguard 1 - Pass Details

Date: 27 June 2019
Orbit: 653 x 3830 km, 34.2° (Epoch: 22 October)

Event Time Altitude Azimuth Distance (km) Brightness Sun altitude
Rises 02:48:04 0° 227° (SW) 7,561 13.9 3.8°
Reaches altitude 10° 02:56:47 10° 209° (SSW) 5,969 13.4 4.4°
Maximum altitude 03:04:41 15° 182° (S) 4,853 13.2 4.9°
Drops below altitude 10° 03:11:00 10° 153° (SSE) 4,597 13.3 5.3°
Sets 03:16:04 0° 132° (SE) 4,996 13.7 5.7°
